Location: Unspecified
(50.7693°N, 0.0000°E)
Time: 13:39:59
(UTC+00:00)

Vanguard 2 - Pass Details

Date: 17 June 2019
Orbit: 553 x 2938 km, 32.9° (Epoch: 18 July)

Event Time Altitude Azimuth Distance (km) Brightness Sun altitude
Rises 08:33:06 0° 193° (SSW) 3,667 11.0 41.7°
Reaches altitude 10° 08:37:25 10° 164° (SSE) 3,168 11.1 42.4°
Maximum altitude 08:40:29 13° 142° (SE) 3,293 11.6 42.8°
Drops below altitude 10° 08:44:04 10° 120° (ESE) 3,862 12.2 43.4°
Sets 08:50:50 0° 96° (E) 5,502 12.6 44.4°
